Location: Montbazon
(47.2835°N, 0.6999°E)
Time: 07:14:16
(UTC+00:00)

Cosmos 1420 Rocket - Pass Details

Date: 08 November 2025
Orbit: 750 x 776 km, 74.0° (Epoch: 12 December)

Event Time Altitude Azimuth Distance (km) Brightness Sun altitude
Rises 05:37:10 0° 198° (SSW) 3,221 7.2 -12.8°
Reaches altitude 10° 05:39:31 10° 197° (SSW) 2,303 6.4 -12.4°
Maximum altitude 05:44:45 82° 111° (ESE) 785 4.1 -11.5°
Drops below altitude 10° 05:50:04 10° 24° (NNE) 2,333 6.6 -10.6°
Sets 05:52:28 0° 24° (NNE) 3,267 7.4 -10.2°
